Hourly Data Report for August 23, 2021

ALGONQUIN PARK EAST GATE
ONTARIO
Current Station Operator: ECCC - MSC

45°32'00.000" N
78°16'00.000" W
397.00 m
6080192
71581
TNK

Download Data

Hourly Data (August 2021)
Hourly Data Report for August 23, 2021
TIME
LST
Temp Definition
°C
Dew Point Definition
°C
Rel Hum Definition
%
Precip. Amount Definition
mm

Wind Dir Definition
10's deg

Wind Spd Definition
km/h
Visibility Definition
km
Stn Press Definition
kPa
Hmdx Definition


Wind Chill Definition


Weather Definition


00:00 19.3 18.7 97 0.0   0   96.67     LegendNANA
01:00 19.3 18.8 97 0.0   0   96.66     LegendNANA
02:00 18.7 18.3 97 0.0 12 2   96.62     LegendNANA
03:00 17.9 17.4 97 0.0   0   96.62     LegendNANA
04:00 17.4 17.1 98 0.0 0 1   96.60     LegendNANA
05:00 16.8 16.4 98 0.0   0   96.61     LegendNANA
06:00 17.1 16.8 98 0.0   0   96.63     LegendNANA
07:00 18.8 18.2 97 0.0   0   96.63     LegendNANA
08:00 20.4 18.6 90 0.0 3 1   96.61 27   LegendNANA
09:00 21.6 19.1 85 0.0 13 3   96.59 28   LegendNANA
10:00 22.8 19.5 82 0.0 1 2   96.61 30   LegendNANA
11:00 24.5 20.4 78 0.0 9 4   96.59 32   LegendNANA
12:00 25.0 20.3 75 0.0 27 3   96.57 33   LegendNANA
13:00 26.5 20.2 69 0.0 31 4   96.54 34   LegendNANA
14:00 27.0 18.8 61 0.0 30 6   96.51 34   LegendNANA
15:00 27.7 18.1 56 0.0 33 6   96.46 34   LegendNANA
16:00 27.4 19.4 62 0.0 34 3   96.46 34   LegendNANA
17:00 26.4 19.9 68 0.0 34 1   96.47 34   LegendNANA
18:00 25.0 20.0 74 0.0 32 1   96.46 33   LegendNANA
19:00 22.4 19.8 86 0.0   0   96.47 30   LegendNANA
20:00 20.5 18.3 87 0.0 27 2   96.54 27   LegendNANA
21:00 19.3 16.9 86 0.0 12 3   96.58     LegendNANA
22:00 17.4 16.2 93 0.0 12 3   96.59     LegendNANA
23:00 16.4 15.5 95 0.0   0   96.61     LegendNANA

Notes on Data Quality.

Legend

  • E = Estimated
  • M = Missing
  • NA = Not Available*
  • [empty] = Indicates an unobserved value
Date modified: